Powrót do katalogu

COSMOS 1261

AktywnyMilitariaHEO
NORAD 12376·PAYLOAD·🇷🇺 Russia

Wystrzelony Mar 31, 1981 z Plesetsk Cosmodrome

Loading…

Następne Przeloty (najbliższe 24 godziny)

TLE

ŚwieżeSource: Space-Track

Epoka: Sep 12, 2026, 16:31 UTC

1 12376U 81031A   26255.68879916  .00000620  00000-0  00000-0 0  9994
2 12376  69.0521  84.5507 5803063 348.2964   2.5658  2.00846427229231

Śledź COSMOS 1261 w czasie rzeczywistym z AllMySat

Download on the App Store